#timestamp,LO_Frequency,Hit 
1498867215.5,286047050.1,N
1498867235.4,286047051.1,N
1498867255.2,286047051.4,N
1498867275.0,286047053.5,N
1498867275.9,286047053.5,N
1498867295.8,286047052.2,N
1498867315.6,286047055.6,N
1498867335.4,286047053.4,N
1498867355.2,286047053.8,N
1498867375.1,286047055.5,N
1498867376.0,286047055.5,N
1498867395.8,286047052.5,N
1498867415.6,286047055.1,N
1498867435.5,286047052.9,N
1498867455.3,286047053.8,N
1498867475.1,286047053.5,N
1498867495.9,286047053.9,N
1498867515.7,286047053.3,N
1498867535.5,286047053.8,N
1498867555.4,286047052.6,N
1498867575.2,286047052.8,N
1498867595.0,286047053.2,N
1498867595.9,286047053.2,N
1498867615.8,286047052.9,N
1498867635.6,286047055.1,N
1498867655.4,286047055.5,N
1498867675.3,286047055.3,N
1498867695.1,286047052.9,N
1498867696.0,286047052.9,N
1498867715.8,286047055.1,N
1498867735.7,286047054.3,N
1498867755.5,286047056.9,N
1498867775.3,286047054.4,N
1498867795.1,286047052.5,N
1498867815.9,286047052.5,N
1498867835.7,286047055.2,N
1498867855.5,286047054.8,N
1498867875.4,286047056.6,N
1498867895.2,286047056.1,N
1498867915.0,286047056.3,N
1498867915.9,286047056.3,N
1498867935.8,286047057.2,N
1498867955.6,286047054.4,N
1498867975.4,286047052.9,N
1498867995.3,286047054.3,N
1498868015.1,286047054.9,N
1498868016.0,286047054.9,N
1498868035.8,286047054.5,N
1498868055.7,286047057.2,N
1498868075.5,286047056.7,N
1498868095.3,286047057.2,N
1498868115.2,286047055.6,N
1498868135.9,286047055.4,N
1498868155.7,286047055.0,N
1498868175.5,286047057.2,N
1498868195.4,286047056.4,N
1498868215.2,286047056.0,N
1498868235.0,286047055.8,N
1498868235.9,286047055.8,N
1498868255.8,286047055.8,N
1498868275.6,286047054.7,N
1498868295.4,286047055.4,N
1498868315.3,286047057.0,N
1498868335.1,286047055.8,N
1498868355.8,286047056.4,N
1498868375.7,286047057.9,N
1498868395.5,286047058.5,N
1498868415.3,286047058.8,N
1498868435.2,286047055.7,N
1498868455.9,286047058.8,N
1498868475.7,286047056.4,N
1498868495.6,286047056.5,N
1498868515.4,286047055.7,N
1498868535.2,286047056.1,N
1498868555.0,286047057.6,N
1498868555.9,286047057.6,N
1498868575.8,286047056.2,N
1498868595.6,286047058.5,N
1498868615.4,286047057.4,N
1498868635.3,286047057.6,N
1498868655.1,286047058.1,N
1498868675.8,286047058.3,N
1498868695.7,286047060.4,N
1498868715.5,286047061.5,N
1498868735.3,286047061.5,N
1498868755.2,286047059.0,N
1498868775.9,286047059.0,N
1498868795.7,286047057.3,N
1498868815.6,286047059.1,N
1498868835.4,286047057.6,N
1498868855.2,286047059.2,N
1498868875.0,286047058.9,N
1498868876.0,286047058.9,N
1498868895.8,286047059.8,N
1498868915.6,286047060.3,N
1498868935.4,286047063.5,N
1498868955.3,286047060.9,N
1498868975.1,286047061.1,N
1498868995.8,286047061.7,N
1498869015.7,286047059.3,N
1498869035.5,286047059.3,N
1498869055.3,286047059.3,N
1498869075.2,286047059.0,N
1498869095.9,286047059.9,N
1498869115.7,286047060.0,N
1498869135.6,286047060.3,N
1498869155.4,286047059.5,N
1498869175.2,286047060.0,N
1498869195.1,286047059.5,N
1498869196.0,286047059.5,N
1498869215.8,286047059.3,N
1498869235.6,286047061.3,N
1498869255.4,286047061.7,N
1498869275.3,286047060.3,N
1498869295.1,286047060.2,N
1498869315.8,286047061.5,N
1498869335.7,286047059.8,N
1498869355.5,286047059.8,N
1498869375.3,286047059.7,N
1498869395.2,286047059.7,N
1498869415.9,286047059.8,N
1498869435.7,286047061.1,N
1498869455.6,286047060.5,N
1498869475.4,286047062.2,N
1498869495.2,286047062.7,N
1498869515.1,286047061.3,N
1498869516.0,286047061.3,N
1498869535.8,286047061.6,N
1498869555.6,286047059.4,N
1498869575.5,286047059.7,N
1498869595.3,286047059.3,N
1498869615.1,286047061.3,N
1498869635.9,286047061.0,N
1498869655.7,286047062.8,N
1498869675.5,286047062.7,N
1498869695.3,286047062.8,N
1498869715.2,286047062.8,N
1498869735.0,286047063.7,N
1498869735.9,286047063.7,N
1498869755.7,286047067.2,N
1498869775.6,286047069.3,N
1498869795.4,286047069.5,N
1498869815.2,286047071.5,N
1498869835.1,286047071.4,N
1498869836.0,286047071.4,N
1498869855.8,286047072.9,N
1498869875.6,286047071.8,N
1498869895.5,286047070.9,N
1498869915.3,286047069.1,N
1498869935.1,286047067.0,N
1498869955.9,286047068.2,N
1498869975.7,286047065.9,N
1498869995.5,286047063.8,N
1498870015.3,286047064.0,N
1498870035.2,286047063.7,N
1498870055.0,286047066.2,N
1498870055.9,286047066.2,N
1498870075.7,286047064.3,N
1498870095.6,286047066.3,N
1498870115.4,286047063.9,N
1498870135.2,286047065.1,N
1498870155.1,286047064.7,N
1498870156.0,286047064.7,N
1498870175.8,286047062.3,N
1498870195.6,286047063.7,N
1498870215.5,286047065.6,N
1498870235.3,286047069.1,N
1498870255.1,286047071.3,N
1498870275.9,286047072.8,N
1498870295.7,286047072.0,N
1498870315.5,286047072.6,N
1498870335.3,286047072.2,N
1498870355.2,286047073.9,N
1498870375.0,286047076.3,N
1498870375.9,286047076.3,N
1498870395.7,286047075.0,N
1498870415.6,286047076.9,N
1498870435.4,286047079.2,N
1498870455.2,286047077.0,N
1498870475.1,286047075.6,N
1498870476.0,286047075.6,N
1498870495.8,286047074.0,N
1498870515.6,286047074.7,N
1498870535.5,286047074.5,N
1498870555.3,286047075.6,N
1498870575.1,286047079.5,N
1498870595.9,286047078.6,N
1498870615.7,286047082.6,N
1498870635.5,286047086.0,N
1498870655.4,286047085.7,N
1498870675.2,286047086.0,N
1498870695.0,286047087.6,N
1498870695.9,286047087.6,N
1498870715.8,286047086.9,N
1498870735.6,286047082.9,N
1498870755.4,286047085.9,N
1498870775.2,286047087.4,N
1498870795.1,286047087.1,N
1498870796.0,286047087.1,N
